カタログに戻る

FENGYUN 1C DEB

LostPO
NORAD 38785·DEBRIS·🇨🇳 China

打ち上げ May 10, 1999 から Taiyuan Satellite Launch Center

Loading…

次のパス (今後24時間)

TLE

古いSource: Space-Track

元期: Feb 15, 2023, 17:51 UTC

1 38785U 99025ETZ 23046.74425456  .00010937  00000-0  59453-2 0  9996
2 38785  98.0227  38.8515 0205707 219.9543 138.6334 14.02221569464773

AllMySatでFENGYUN 1C DEBをリアルタイム追跡

Download on the App Store